Location: Hartha
(51.1030°N, 12.9600°E)
Time: 20:28:24
(UTC+02:00)

Daily predictions for brighter satellites

Satellite Brightness Start Highest point End
(mag) Time Altitude Azimuth Time Altitude Azimuth Time Altitude Azimuth
NOSS 3-2 (C) 4.3 20:58:27 10° SSE 21:02:59 25° ESE 21:08:00 10° ENE
ERBS 4.1 21:01:57 10° WNW 21:04:57 30° N 21:07:57 10° NE
Cosmos 1805 Rocket 3.7 21:00:47 10° S 21:05:14 84° W 21:09:44 10° N
Genesis I 4.1 21:02:15 10° NW 21:06:00 46° SW 21:09:42 10° SSE
Cosmos 1980 Rocket 2.3 21:03:18 10° NNW 21:09:01 82° WSW 21:14:40 10° SSE
Meteor 1-4 Rocket 2.4 21:06:06 10° N 21:09:34 72° ENE 21:13:01 10° SSE
Cosmos 192 4.4 21:05:32 10° NNW 21:10:29 80° ENE 21:15:24 10° SSE
Resurs 1-3 3.6 21:07:00 10° SSE 21:11:23 80° ENE 21:15:48 10° NNW
H-2A R/B 3.9 21:07:06 10° SSW 21:11:36 32° W 21:16:03 10° NNW
Cosmos 389 Rocket 4.4 21:10:03 10° NNW 21:13:09 31° W 21:16:16 10° SSW
Cosmos 2123 Rocket 4.0 21:09:27 10° N 21:15:42 70° ENE 21:21:57 10° SSE
SPOT 1/Viking Rocket 4.5 21:14:24 10° SE 21:19:01 33° ENE 21:23:41 10° N
Cosmos 2239 Rocket 4.5 21:13:43 10° S 21:19:50 82° E 21:26:03 10° NNE
ERS-1 Rocket 4.3 21:16:37 10° ESE 21:20:35 24° ENE 21:24:35 10° N
Cosmos 1833 Rocket 3.0 21:15:24 10° SW 21:21:01 75° WNW 21:26:42 10° NNE
Cosmos 1697 Rocket 4.0 21:16:28 10° NW 21:21:39 39° WSW 21:26:49 10° S
Cosmos 1633 Rocket 3.1 21:17:53 10° S 21:22:15 63° E 21:26:38 10° NNE
Cosmos 676 Rocket 4.1 21:17:40 10° S 21:22:52 58° ESE 21:28:08 10° NNE
Intercosmos 25 4.0 21:19:45 10° NNW 21:23:39 50° W 21:26:47 10° S
H-2A R/B 4.3 21:23:27 10° NE 21:27:06 30° E 21:30:46 10° SSE
BREEZE-M DEB (TANK) 2.3 21:25:16 10° WSW 21:27:47 61° SSE 21:33:36 10° E
Cosmos 1605 Rocket 4.3 21:22:23 10° SSE 21:28:09 46° E 21:33:56 10° NNE
Cosmos 921 Rocket 2.9 21:24:21 10° NNW 21:28:36 79° ENE 21:32:46 10° SSE
ATLAS 3B R/B 4.0 21:27:23 10° SE 21:31:06 16° ESE 21:34:50 10° ENE
Cosmos 405 Rocket 3.5 21:29:13 10° SSE 21:32:30 31° E 21:35:52 10° NNE
Cosmos 468 Rocket 4.2 21:27:15 10° NNW 21:32:34 64° ENE 21:37:30 12° SE
USA 234 3.6 21:27:09 10° E 21:33:37 65° NNE 21:40:05 10° WNW
Cosmos 1707 Rocket 4.5 21:31:31 10° NNW 21:35:43 48° W 21:39:52 10° SSW
Cosmos 1437 Rocket 3.5 21:34:43 10° N 21:38:14 34° ENE 21:40:56 15° SE
SPOT 3 Rocket 4.0 21:33:24 10° S 21:38:34 65° WSW 21:43:44 10° NNW
Cosmos 2333 Rocket 4.0 21:35:45 10° NNW 21:40:06 21° NE 21:44:25 10° E
DMSP B5D2-2 4.5 21:35:23 10° N 21:40:36 70° WNW 21:45:49 10° SSW
Cosmos 1867 3.6 21:35:54 10° SW 21:41:21 88° SE 21:46:51 10° NE
Cosmos 2242 Rocket 3.8 21:38:35 10° N 21:42:57 53° ENE 21:46:41 13° SSE
Terra 3.2 21:44:34 13° ESE 21:47:48 25° ENE 21:51:40 10° N
Lacrosse 5 2.1 21:45:09 10° WNW 21:50:10 61° SW 21:54:06 16° SE
Cosmos 1238 Rocket 2.3 21:47:59 13° S 21:50:29 49° E 21:53:26 10° NNE
USA 276 2.4 21:47:27 10° W 21:50:33 52° SSW 21:52:28 21° SE
Cosmos 1470 Rocket 3.5 21:46:39 10° S 21:51:01 70° E 21:55:23 10° NNE
Cosmos 1954 Rocket 4.1 21:46:26 10° SSW 21:51:46 88° WNW 21:57:08 10° NNE
USA 238 DEB 3.6 21:45:42 10° SSW 21:52:18 71° SE 21:59:13 10° NE
USA 238 3.6 21:45:49 10° SSW 21:52:24 71° SE 21:59:19 10° NE
Spot 2 Rocket 3.6 21:48:20 13° SSE 21:52:55 69° ENE 21:58:00 10° N
X-37B 2.0 21:50:30 10° WSW 21:53:05 23° S 21:54:17 19° SSE
Meteor 1-19 Rocket 4.2 21:51:37 10° N 21:57:03 68° ENE 22:01:39 15° SSE
Okean 1 3.3 21:53:54 10° N 21:57:58 73° ENE 22:01:07 16° SSE
Cosmos 1741 Rocket 4.3 21:53:08 10° S 21:58:07 45° ESE 22:03:09 10° NE
CENTAUR R/B 2.7 21:53:37 10° SSW 21:59:24 52° ESE 22:06:14 10° NE
Cosmos 44 3.4 21:55:48 10° NW 22:00:41 80° NE 22:04:22 19° SE
CZ-2C R/B 4.2 21:56:42 10° N 22:01:16 64° WNW 22:05:42 10° SSW
Cosmos 1862 Rocket 4.4 21:59:00 10° NNW 22:03:21 51° W 22:07:37 10° S
Cosmos 1570 Rocket 4.3 21:59:39 10° NNW 22:04:56 59° ENE 22:08:36 20° SE
MetOp-B 4.3 22:01:46 10° S 22:07:04 74° WSW 22:12:28 10° NNW
Cosmos 1763 Rocket 3.6 22:03:19 10° NNW 22:08:40 80° WSW 22:12:49 17° SSE
Meteor 2-4 Rocket 3.9 22:04:14 10° N 22:09:46 55° ENE 22:13:26 20° SE
SL-4 R/B 1.8 22:06:45 10° W 22:10:43 84° N 22:13:54 13° E
CZ-2C R/B 4.1 22:06:41 10° N 22:11:27 38° WNW 22:16:15 10° SW
BREEZE-M DEB (TANK) 1.7 22:09:32 10° W 22:11:54 49° S 22:12:11 44° SSE
FALCON 9 DEB 3.4 22:10:35 10° W 22:14:05 69° N 22:17:33 10° ENE
Cosmos 2219 Rocket 3.6 22:09:50 10° NNW 22:14:41 28° NE 22:18:52 13° E
Cosmos 2208 Rocket 4.2 22:09:49 10° NNW 22:15:02 59° ENE 22:18:15 23° SE
SL-16 R/B 2.3 22:10:35 10° NNW 22:16:17 80° WSW 22:20:20 20° SSE
OBJECT-B 3.6 22:14:20 10° SW 22:16:28 16° W 22:18:37 10° NW
Resurs 01 Rocket 2.9 22:12:23 10° SSW 22:16:30 37° W 22:20:38 10° NNW
Cosmos 1153 Rocket 4.5 22:11:06 10° S 22:17:11 68° E 22:23:21 10° NNE
FAST 4.3 22:15:35 10° N 22:18:13 79° E 22:19:16 34° SSE
GP-B 3.7 22:17:31 10° N 22:21:54 58° W 22:26:15 10° SSW
Okean 3 4.2 22:18:24 10° N 22:22:29 39° ENE 22:24:16 26° ESE
Meteor 1-14 Rocket 4.3 22:18:35 10° S 22:24:26 73° E 22:30:25 10° NNE
SWARM A 4.3 22:21:40 10° N 22:24:59 61° E 22:26:09 35° SSE
IGS 5A 3.9 22:22:42 16° S 22:25:51 59° W 22:29:59 10° NNW
CARTOSAT-1 3.5 22:23:43 25° SSE 22:26:08 73° ENE 22:30:28 10° N
Cosmos 2082 Rocket 3.4 22:22:09 10° WSW 22:27:35 45° NW 22:33:02 10° NNE
SPOT 5 2.6 22:29:09 28° SSE 22:31:23 71° ENE 22:35:50 10° N
Cosmos 1802 Rocket 4.4 22:27:48 22° SSE 22:31:29 45° E 22:37:26 10° NNE
Cosmos 1933 Rocket 3.9 22:27:18 10° SSW 22:31:42 67° WNW 22:36:10 10° N
Cosmos 1536 4.3 22:31:56 21° E 22:32:08 21° E 22:35:09 10° NE
Cosmos 2322 Rocket 2.3 22:28:37 10° NNW 22:34:19 72° WSW 22:37:51 24° SSE
Landsat 7 4.4 22:32:03 15° S 22:35:47 53° W 22:40:28 10° NNW
USA 267 3.3 22:33:12 10° ENE 22:39:37 55° SE 22:46:01 10° SW
ERBS 3.7 22:38:45 10° NW 22:41:50 34° NNE 22:43:48 18° ENE
Cosmos 1869 Rocket 3.5 22:40:49 28° S 22:43:06 69° E 22:47:34 10° NNE
NOSS 3-2 (A) 3.9 22:37:20 10° WSW 22:43:11 66° NW 22:50:00 10° NE
Cosmos 1500 3.1 22:42:45 38° SSE 22:44:00 67° E 22:47:45 10° NNE
SAR-Lupe-2 3.6 22:40:35 10° NNE 22:44:08 58° ESE 22:44:59 44° SSE
SL-27 R/B 2.3 22:42:23 24° SSW 22:44:16 82° WNW 22:47:36 10° NNE
Cosmos 2360 Rocket 2.2 22:38:33 10° NNW 22:44:17 81° ENE 22:47:12 30° SE
Cosmos 540 Rocket 3.5 22:39:16 10° NNW 22:44:28 77° WSW 22:47:11 29° SSE
Cosmos 2237 4.2 22:39:13 10° NNW 22:44:59 88° ENE 22:47:57 30° SSE
Cosmos 1242 Rocket 3.7 22:42:55 10° N 22:46:11 30° ENE 22:46:44 28° E
Okean 1-7 3.5 22:42:11 10° NNW 22:46:24 55° W 22:48:55 23° SSW
Cosmos 1703 Rocket 4.5 22:47:56 10° NNW 22:52:04 44° W 22:54:48 19° SSW
NOSS 3-2 (C) 3.5 22:47:13 10° SW 22:53:04 81° NW 22:59:54 10° NE
Cosmos 1666 3.1 22:54:47 40° E 22:54:56 40° E 22:58:30 10° NNE
Cosmos 1674 Rocket 4.4 22:52:29 10° N 22:56:28 34° ENE 22:57:28 30° E
SPOT 1/Viking Rocket 4.4 22:54:37 17° SSW 22:58:19 44° W 23:03:21 10° NNW
ERS-1 Rocket 3.3 22:56:13 25° S 22:59:02 60° W 23:04:02 10° NNW
Cosmos 841 Rocket 4.1 23:01:09 10° NNW 23:06:14 51° WSW 23:08:44 28° SSW
COSMOS 2428 3.3 23:01:33 10° NNW 23:07:08 48° NE 23:09:49 28° ESE
Cosmos 1378 4.3 23:03:55 10° N 23:07:14 29° ENE 23:07:27 29° ENE
Cosmos 2084 Rocket 3.7 23:03:19 10° SW 23:07:31 67° NW 23:11:51 10° NE
Tsikada Rocket 4.1 23:02:02 10° N 23:08:21 63° ENE 23:11:05 34° SE
Cosmos 1743 4.3 23:14:19 22° ENE 23:14:19 22° ENE 23:16:52 10° NE
Cosmos 2237 Rocket 3.7 23:09:17 10° NNW 23:14:07 28° NE 23:17:36 16° E
Cosmos 1733 Rocket 3.3 23:13:36 46° ESE 23:14:09 49° E 23:18:26 10° NNE
Cosmos 2100 Rocket 4.1 23:11:13 19° SSW 23:15:44 75° WNW 23:21:55 10° N
COSMOS 2487 3.4 23:17:15 34° ENE 23:17:15 34° ENE 23:19:38 10° NE
USA 234 3.3 23:13:34 33° SE 23:16:40 66° SW 23:23:12 10° WNW
ALOS 2 4.2 23:18:39 21° E 23:19:45 23° ENE 23:23:14 10° N
ATLAS 3B R/B 2.5 23:14:04 10° SSW 23:20:36 69° SE 23:27:13 10° NE
Cosmos 2173 Rocket 4.1 23:17:06 21° SSW 23:21:24 73° WNW 23:27:32 10° N
Cosmos 1271 Rocket 3.5 23:18:41 10° N 23:22:16 38° ENE 23:22:25 37° ENE
Iridium 4 Rocket 3.2 23:21:59 40° SSW 23:23:20 67° W 23:27:29 10° N
Terra 2.3 23:23:28 33° SSW 23:25:16 52° W 23:29:57 10° NNW
Cosmos 2333 Rocket 2.3 23:19:36 10° NNW 23:25:25 73° ENE 23:27:31 40° SE
Thor Agena Rocket 4.4 23:21:30 10° NNE 23:26:02 31° E 23:26:21 31° ESE
Lacrosse 5 3.9 23:29:32 10° W 23:32:15 15° WSW 23:33:17 14° SW
Cosmos 1066 Rocket 4.1 23:27:06 10° NNW 23:32:49 90° E 23:34:39 45° SSE
Cosmos 1725 Rocket 3.9 23:30:01 35° S 23:32:53 82° E 23:39:16 10° NNE
Lacrosse 4 Rocket 1.3 23:33:51 63° ESE 23:33:51 63° ESE 23:37:54 10° NE
Cosmos 1459 Rocket 4.4 23:30:59 19° SSW 23:35:38 60° WNW 23:41:58 10° N
SL-08 R/B 4.4 23:34:29 36° S 23:37:11 89° E 23:43:21 10° N
Meteor 1-11 Rocket 3.8 23:37:11 34° SSW 23:39:50 80° WNW 23:45:42 10° N
Cosmos 2016 Rocket 4.1 23:37:52 29° SSW 23:41:21 76° W 23:47:47 10° N
Cosmos 2221 Rocket 4.4 23:38:03 10° NNW 23:42:20 45° W 23:43:34 36° SW
Cosmos 1908 Rocket 4.1 23:47:38 42° E 23:47:38 42° E 23:51:34 10° NNE
Cosmos 1378 Rocket 3.4 23:44:10 10° N 23:48:39 84° ENE 23:49:06 71° SSE
CENTAUR R/B 3.5 23:44:00 10° WSW 23:50:10 52° NNW 23:57:30 10° NE
SL-4 R/B 2.3 23:46:34 10° W 23:49:28 49° W 23:49:28 49° W
FALCON 9 DEB 3.7 23:47:49 10° WNW 23:50:49 58° NW 23:50:49 58° NW
Cosmos 1503 Rocket 4.4 23:53:29 44° ESE 23:53:45 44° ESE 23:58:50 10° NE
Cosmos 2227 Rocket 4.2 23:54:55 13° E 23:54:55 13° E 23:57:02 10° ENE
